Location: Belmont
(13.0833°N, 59.6000°W)
Time: 07:54:52
(UTC+00:00)

ADEOS Rocket - Pass Details

Date: 17 September 2019
Orbit: 859 x 1306 km, 98.7° (Epoch: 13 October)

Event Time Altitude Azimuth Distance (km) Brightness Sun altitude
Rises 23:02:01 0° 25° (NNE) 4,213 6.1 -16.3°
Reaches altitude 10° 23:04:51 10° 32° (NNE) 3,277 5.5 -17.0°
Maximum altitude 23:12:02 43° 101° (ESE) 1,760 3.8 -18.8°
Drops below altitude 10° 23:19:13 10° 170° (S) 3,292 5.6 -20.5°
Sets 23:22:03 0° 176° (S) 4,234 6.2 -21.2°
